BREEZE-M R/B, 44458

Orbit data source: Space-Track

BREEZE-M R/B, 44458 is space debris in GEO originally from a launch on Mon, 05 Aug 2019 UTC launched from the Tyuratam Missile And Space Complex (TTMTR). Debris objects in space refer to the collection of defunct objects orbiting the Earth. Examples of debris include non-operational satellites, rocket bodies, and fragments generated from explosions, collisions, or faulty payload assembly.

Not visible in the next 10 days
Identifier
44458, 2019-048B
Orbit
GEO
Country
Flag of CISCIS
Related business
Manufacturer
Khrunichev
Mission
Spacecraft
Bus & Motor
BRIZ, Unknown motor
Mass
~1,600 kg wet, 1,600 kg dry
Launch date (UTC)
2019-08-05 (7 years ago)
Launch vehicle
Unknown
Launch site
Tyuratam Missile And Space Complex (TTMTR)
Object type
Payload
Rocket body
Debris
Shape & HBR
Cyl, 2.0 m
Radar Cross Section
15.135 m², Medium (>0.1 m² and < 1m²)

Expand to show TLE details & history
Last TLE update: 4 days ago

TLE from 4 days ago
0 BREEZE-M R/B
1 44458U 19048B   26169.91669092 -.00000173  00000-0  00000-0 0  9995
2 44458   6.8951  72.8201 0738371 130.1780 236.2898  0.90283795 22572
Epoch: 2026-06-18T22:00Z
TLE epoch observation values (Epoch: 2026-06-18T22:00:02.095Z)
Latitude
0.00002°
Longitude
-164.49972°
Altitude
40,853.597 km
Speed
2.84 km/s
True Right ascension
04h 50m 38s
True Declination
0° 00' 00"
Sunlit
Object was in daylight at epoch
Visualization orbit readout
Latitude
Unknown
Longitude
Unknown
Altitude
Unknown
Speed
Unknown
Apparent Right ascension
Unknown
Apparent Declination
Unknown
Sunlit
N/A
Visualization observer readout
Local Sidereal Time
21:24:49
Azimuth
Unknown
Elevation
Unknown
Doppler factor
Unknown
Orbital elements
Apogee altitude
42,181.623 km
Perigee altitude
35,503.68 km
Semi-major axis
45,220.788 km
Eccentricity
0.07384
Inclination
6.8951°
RAAN
72.8201°
Arg. of periapsis
130.178°
True anomaly
229.61003°
Mean anomaly
236.2898°
Eccentric anomaly
232.91491°
Mean motion
0.2257 °/min
Orbital period
1,595.02 mins
BSTAR
0
Loading maneuver chart data...
Computing Atmospheric mass density...
Loading historical data...
Loading historical data...
Loading historical data...
Loading historical data...
Loading historical data...
Loading historical data...
Loading historical data...
Other satellites on launch #48 in the year 2019 (2019-08-05 UTC)

Documentation

Showing up to 5 results
|